Regional Weather Roundup
Issued by NWS

Home | Current Version | Previous Version | Text Only | Print | Product List | Glossary On
Versions: 1 2 3 4 5 6 7 8 9 10 11 12 13 14 15 16 17 18 19 20 21 22 23 24 25 26 27 28 29 30 31 32 33 34 35 36 37 38 39 40 41 42 43 44 45 46 47 48 49 50
000
ASUS44 KJAN 260610
RWRMS

MISSISSIPPI HOURLY WEATHER ROUNDUP
NATIONAL WEATHER SERVICE JACKSON MS
100 AM CDT SUN JUN 26 2016

NOTE: "FAIR: INDICATES FEW OR NO CLOUDS BELOW 12,000 FEET WITH NO
SIGNIFICANT WEATHER AND/OR OBSTRUCTIONS TO VISIBILITY.

MSZ001>002-007>008-010>013-018>021-025>028-034>036-260700-
NORTHWEST MISSISSIPPI

CITY           SKY/WX    TMP DP  RH WIND       PRES   REMARKS
CLEVELAND      FAIR      77  77 100 CALM      30.06S
GREENWOOD      PTCLDY    77  74  90 CALM      30.06S
6HR MIN TEMP:  77; 6HR MAX TEMP:  91;

GREENVILLE     CLEAR     78  72  81 S3        30.06S
6HR MIN TEMP:  77; 6HR MAX TEMP:  92;

OXFORD         FAIR      73  72  94 CALM      30.10R
WINONA         FAIR      75  73  96 CALM      30.07S
$$

MSZ003>006-009-014>017-022>024-029>033-037>039-260700-
NORTHEAST MISSISSIPPI

CITY           SKY/WX    TMP DP  RH WIND       PRES   REMARKS
ABERDEEN       FAIR      75  59  57 CALM      30.07S
COLUMBUS AFB   CLEAR     78  74  88 CALM      30.05S
6HR MIN TEMP:  78; 6HR MAX TEMP:  93;

GOLDN TRIANGLE CLEAR     79  70  73 CALM      30.06S
STARKVILLE     FAIR      73  72  94 CALM      30.06S
TUPELO         PTCLDY    80  73  79 SW3       30.07S
6HR MIN TEMP:  80; 6HR MAX TEMP:  94;

$$

MSZ040-058-260700-
CENTRAL MISSISSIPPI

CITY           SKY/WX    TMP DP  RH WIND       PRES   REMARKS
JACKSON INTL   CLEAR     78  73  84 CALM      30.07F
6HR MIN TEMP:  77; 6HR MAX TEMP:  91;

JACKSON HAWKNS CLEAR     79  73  82 CALM      30.07F
6HR MIN TEMP:  79; 6HR MAX TEMP:  89;

MADISON        FAIR      73  72  94 CALM      30.07F
MERIDIAN KEY   PTCLDY    82  75  79 CALM      30.06F
6HR MIN TEMP:  82; 6HR MAX TEMP:  94; 6HR PCP: TRACE;

MERIDIAN NAS   PTCLDY    79  72  79 CALM      30.07S
6HR MIN TEMP:  78; 6HR MAX TEMP:  93;

VICKSBURG VKS  CLEAR     77  75  94 CALM      30.07S
$$

MSZ059>079-260700-
SOUTH MISSISSIPPI

CITY           SKY/WX    TMP DP  RH WIND       PRES   REMARKS
BROOKHAVEN     FAIR     N/A N/A N/A MISG      30.09F
HATTIESBURG    CLEAR     81  73  76 CALM      30.07F
6HR MIN TEMP:  80; 6HR MAX TEMP:  93;

MCCOMB         PTCLDY    78  73  84 CALM      30.08F
6HR MIN TEMP:  75; 6HR MAX TEMP:  91;

NATCHEZ        NOT AVBL
PINE BELT      CLEAR     75  70  83 CALM      30.09S
6HR MIN TEMP:  75; 6HR MAX TEMP:  91;

$$

MSZ080>082-260700-
COASTAL MISSISSIPPI

CITY           SKY/WX    TMP DP  RH WIND       PRES   REMARKS
BILOXI         CLEAR     83  76  80 SW5       30.07S HX  90
6HR MIN TEMP:  82; 6HR MAX TEMP:  87;

PASCAGOULA     CLEAR     75  74  96 CALM      30.07F
6HR MIN TEMP:  74; 6HR MAX TEMP:  87;

GULFPORT       CLEAR     80  75  84 CALM      30.07S
6HR MIN TEMP:  80; 6HR MAX TEMP:  88;

$$

LAZ007>009-015>016-023>026-260700-
NORTHEAST LOUISIANA

CITY           SKY/WX    TMP DP  RH WIND       PRES   REMARKS
BASTROP        FAIR      76  75  98 CALM      30.07S
TALLULAH/VBURG CLEAR     76  73  91 CALM      30.06F FOG
6HR MIN TEMP:  76; 6HR MAX TEMP:  88;

VIDALIA        FAIR      77  75  94 CALM      30.09S
$$




USA.gov is the U.S. government's official web portal to all federal, state and local government web resources and services.